DH4SBM Weather Reports


time (UTC)temp
C
wind
direction
speed
KPH
gust
KPH
rain 1hr
cm
rain 24hr
cm
rain mn
cm
humidity
%
barometer
mb
20260507134840 12 315 9.7 17.7 0.00 0.71 0.36 76 1016.9
20260507133840 12 315 6.4 17.7 0.00 0.71 0.36 77 1016.8
20260507132840 12 338 6.4 12.9 0.00 0.71 0.36 79 1016.8
20260507131840 11 315 4.8 11.3 0.00 0.71 0.36 81 1016.7
20260507130840 11 292 6.4 12.9 0.00 0.71 0.36 81 1016.6
20260507125840 11 292 6.4 14.5 0.00 0.71 0.36 81 1016.7
20260507124840 11 292 4.8 14.5 0.00 0.71 0.36 82 1016.8
20260507123840 11 315 6.4 16.1 0.00 0.71 0.36 82 1016.7
20260507122840 11 315 4.8 12.9 0.00 0.71 0.36 83 1016.6
20260507121840 11 338 6.4 9.7 0.00 0.71 0.36 83 1016.4
20260507120840 11 315 6.4 14.5 0.00 0.71 0.36 83 1016.5
20260507115840 11 292 9.7 19.3 0.00 0.71 0.36 81 1016.4
20260507114840 11 338 8.0 17.7 0.00 0.71 0.36 81 1016.4
20260507113840 11 315 9.7 17.7 0.00 0.71 0.36 81 1016.3
20260507112840 11 315 8.0 16.1 0.00 0.71 0.36 81 1016.3
20260507111838 11 315 9.7 17.7 0.00 0.71 0.36 79 1016.3
20260507110838 11 292 9.7 17.7 0.00 0.71 0.36 80 1016.2
20260507105838 12 315 9.7 17.7 0.00 0.71 0.36 79 1016.2
20260507104838 12 315 9.7 19.3 0.00 0.71 0.36 79 1016.3
20260507103838 12 270 11.3 22.5 0.00 0.71 0.36 81 1016.4
20260507102838 11 270 6.4 14.5 0.00 0.71 0.36 82 1016.4
20260507101838 11 270 12.9 19.3 0.00 0.71 0.36 82 1016.3
20260507100838 11 270 11.3 22.5 0.00 0.71 0.36 83 1016.3
20260507095043 10 248 14.5 22.5 0.00 0.71 0.36 89 1016.1
20260507094042 10 248 11.3 22.5 0.00 0.71 0.36 91 1016.0
20260507093541 10 248 11.3 22.5 0.00 0.71 0.36 91 1016.0
20260507091542 9 270 8.0 14.5 0.00 0.71 0.36 94 1015.6
20260507090542 9 270 8.0 14.5 0.00 0.71 0.36 94 1015.6
20260506204541 10 202 4.8 12.9 0.15 0.33 0.33 93 1010.5
20260506203541 10 202 6.4 12.9 0.15 0.33 0.33 93 1010.5
20260506202541 10 225 6.4 16.1 0.15 0.33 0.33 93 1010.2
20260506201541 11 202 4.8 9.7 0.15 0.30 0.30 93 1010.1
20260506200541 11 202 6.4 12.9 0.18 0.28 0.28 92 1010.2
20260506195541 11 180 6.4 14.5 0.18 0.25 0.25 92 1010.1
20260506194541 11 180 6.4 12.9 0.15 0.20 0.20 92 1009.9
20260506193541 11 202 6.4 11.3 0.13 0.18 0.18 92 1009.8
20260506192541 11 202 4.8 14.5 0.13 0.15 0.15 92 1009.6
20260506191541 11 202 6.4 17.7 0.10 0.15 0.15 91 1009.4
20260506190541 11 180 6.4 12.9 0.08 0.10 0.10 91 1009.4
20260506185541 11 202 4.8 14.5 0.05 0.08 0.08 91 1009.2
20260506184541 11 202 6.4 16.1 0.05 0.05 0.05 91 1009.0
20260506183544 11 202 8.0 16.1 0.05 0.05 0.05 90 1009.0
20260506182544 12 180 6.4 16.1 0.03 0.05 0.05 90 1008.9
20260506181544 12 202 4.8 12.9 0.03 0.05 0.05 90 1008.7
20260506180544 12 202 4.8 14.5 0.00 0.03 0.03 90 1008.7
20260506175544 12 202 3.2 8.0 0.03 0.08 0.03 90 1008.7
20260506174544 12 225 3.2 8.0 0.03 0.08 0.03 89 1008.5
20260506173544 12 225 4.8 11.3 0.03 0.08 0.03 89 1008.5
20260506172544 12 225 4.8 12.9 0.03 0.08 0.03 89 1008.4
20260506171544 12 225 4.8 9.7 0.03 0.08 0.03 89 1008.2
20260506170546 12 225 3.2 8.0 0.03 0.08 0.03 89 1008.1
20260506165546 12 225 3.2 8.0 0.00 0.08 0.00 88 1008.2
20260506164544 12 248 6.4 11.3 0.00 0.08 0.00 87 1008.2
20260506163544 12 248 8.0 17.7 0.00 0.08 0.00 87 1008.3
20260506162544 12 248 8.0 17.7 0.00 0.08 0.00 86 1008.3
20260506161546 12 248 8.0 17.7 0.00 0.08 0.00 87 1008.2
20260506160546 12 248 8.0 14.5 0.00 0.08 0.00 87 1008.2
20260506155546 12 248 8.0 16.1 0.00 0.08 0.00 87 1008.1
20260506154546 12 270 4.8 12.9 0.00 0.08 0.00 87 1008.0
20260506153546 12 270 4.8 12.9 0.00 0.08 0.00 87 1008.0
20260506152546 12 270 6.4 14.5 0.00 0.08 0.00 87 1008.0
20260506151546 12 292 6.4 19.3 0.00 0.08 0.00 87 1007.8
20260506150546 12 292 11.3 22.5 0.00 0.08 0.00 87 1007.7
20260506145546 12 292 12.9 22.5 0.00 0.13 0.00 87 1007.6
20260506144546 12 292 12.9 24.1 0.00 0.13 0.00 86 1007.5
20260506143546 13 270 17.7 33.8 0.00 0.13 0.00 85 1007.6
20260506142544 13 270 19.3 30.6 0.00 0.13 0.00 82 1007.6
20260506141544 14 270 17.7 35.4 0.00 0.13 0.00 78 1007.5
20260506140544 16 270 8.0 14.5 0.00 0.13 0.00 76 1007.1